#datint,netname,site,siteID,timestamp,IntT,BattV,AirT2,AirT,AirT_Avg,AirT_Max,AirT_Min,RH_Avg,RH_Max,RH_Min,EA_Avg,Td_Avg,Td_Max,Td_Min,WindS_Smp,WindS_Avg,WindD_Avg,WindD_SD,WindS_Max,ETo,ETr,SoilT4,SoilT8,SoilVWC8,SolarW_Avg,wetstate_Avg,wetT_Avg,Precip_accum,Precip_WPG,Precip_TB
15min,AgWx,beryljct,423,19NOV2020:00:00:00,51.5,12.87,49.6,49.5,49.6,50.5,48.9,46,47,45,0.556,29.8,30.1,29.5,5.261,5.3,221,6.8,7.5,0.00020,0.00029,46.9,46.8,9,0,.,.,5.99,0.00,0.00
15min,AgWx,beryljct,423,19NOV2020:00:15:00,50.3,12.85,49.5,48.6,49.1,49.6,48.4,46,47,45,0.540,29.2,29.7,28.8,2.126,3.9,219,9.1,6.1,0.00011,0.00018,46.8,46.8,8,0,.,.,5.99,0.00,0.00
15min,AgWx,beryljct,423,19NOV2020:00:30:00,48.6,12.86,40.4,40.9,43.2,48.7,39.8,51,55,46,0.464,26.1,29.0,24.6,4.209,3.0,326,21,4.2,0.00001,0.00005,46.7,46.8,8,0,.,.,5.99,0.00,0.00
15min,AgWx,beryljct,423,19NOV2020:00:45:00,46.5,12.85,44.2,41.4,40.5,41.4,39.6,54,56,53,0.473,25.2,26.1,24.7,4.099,4.3,335,5.6,5.5,0.00007,0.00012,46.6,46.8,9,0,.,.,5.99,0.00,0.00
15min,AgWx,beryljct,423,19NOV2020:01:00:00,45.0,12.85,43.8,43.7,41.9,43.7,40.1,53,56,50,0.497,25.9,27.1,25.1,2.872,3.6,333,7.5,4.8,0.00004,0.00008,46.4,46.8,9,0,.,.,5.99,0.00,0.00
15min,AgWx,beryljct,423,19NOV2020:01:15:00,43.9,12.84,41.5,42.3,41.8,43.8,40.7,53,55,50,0.478,25.8,26.8,25.2,3.398,3.9,338,8.0,5.1,0.00006,0.00011,46.3,46.8,9,0,.,.,5.99,0.00,0.00
15min,AgWx,beryljct,423,19NOV2020:01:30:00,43.2,12.82,39.6,39.3,40.8,42.7,39.1,54,57,51,0.462,25.4,26.6,24.6,3.88,3.9,343,7.2,4.9,0.00005,0.00010,46.1,46.8,8,0,.,.,5.99,0.00,0.00
15min,AgWx,beryljct,423,19NOV2020:01:45:00,42.2,12.82,40.3,38.9,38.1,39.3,36.7,59,62,56,0.490,25.1,26.6,23.9,3.814,3.8,331,9.1,5.2,0.00002,0.00005,45.9,46.8,8,0,.,.,6.00,0.00,0.00
15min,AgWx,beryljct,423,19NOV2020:02:00:00,41.2,12.82,37.4,37.6,38.5,39.3,37.3,59,61,57,0.449,25.2,26.4,24.4,3.354,2.6,352,30,4.0,-0.00004,-0.00003,45.7,46.8,8,0,.,.,6.00,0.00,0.00
15min,AgWx,beryljct,423,19NOV2020:02:15:00,40.6,12.81,43.9,43.3,41.2,43.7,37.5,54,60,50,0.475,25.9,26.7,24.6,3.354,3.2,354,18,4.4,0.00001,0.00004,45.5,46.7,9,0,.,.,6.00,0.00,0.00
15min,AgWx,beryljct,423,19NOV2020:02:30:00,40.7,12.79,40.7,40.5,41.9,43.9,39.8,52,56,49,0.470,25.5,26.1,24.7,0.68,2.2,2.4,27,4.2,-0.00005,-0.00004,45.3,46.7,9,0,.,.,6.00,0.00,0.00
15min,AgWx,beryljct,423,19NOV2020:02:45:00,40.4,12.79,45.2,43.5,41.3,43.5,40.3,53,55,50,0.477,25.6,26.2,25.2,0,0.5,355,7.5,1.5,-0.00024,-0.00035,45.1,46.7,8,0,.,.,5.99,0.00,0.00
15min,AgWx,beryljct,423,19NOV2020:03:00:00,40.4,12.79,36.8,36.2,43.8,48.1,36.2,47,59,41,0.423,25.0,26.1,22.6,5.239,1.6,307,76,5.2,-0.00011,-0.00012,44.9,46.7,8,0,.,.,6.00,0.00,0.00
15min,AgWx,beryljct,423,19NOV2020:03:15:00,39.8,12.77,41.3,40.3,37.5,40.3,35.7,59,61,54,0.462,24.4,25.3,23.0,2.411,3.3,203,14,5.1,-0.00000,0.00002,44.7,46.6,9,0,.,.,6.00,0.00,0.00
15min,AgWx,beryljct,423,19NOV2020:03:30:00,39.2,12.78,41.4,40.3,39.1,40.9,36.0,55,61,52,0.468,24.5,26.0,21.8,2.214,3.0,200,18,5.0,-0.00000,0.00002,44.5,46.6,9,0,.,.,6.00,0.00,0.00
15min,AgWx,beryljct,423,19NOV2020:03:45:00,38.7,12.77,33.5,40.2,40.5,42.5,36.3,53,59,49,0.420,24.7,25.9,22.0,2.543,1.7,201,18,3.0,-0.00010,-0.00012,44.2,46.6,9,0,.,.,6.00,0.00,0.00
15min,AgWx,beryljct,423,19NOV2020:04:00:00,38.3,12.76,37.8,43.9,39.8,45.6,33.2,54,66,44,0.433,24.3,26.2,20.3,5.7,4.4,238,17,7.5,0.00008,0.00013,44.0,46.5,8,0,.,.,6.00,0.00,0.00
15min,AgWx,beryljct,423,19NOV2020:04:15:00,38.5,12.76,37.1,37.3,40.2,43.0,37.3,53,57,45,0.428,24.3,25.3,22.9,2.85,5.9,256,18,8.3,0.00015,0.00020,43.8,46.5,8,0,.,.,6.00,0.00,0.00
15min,AgWx,beryljct,423,19NOV2020:04:30:00,38.1,12.74,35.4,35.2,35.5,37.3,33.8,59,62,57,0.423,22.6,23.9,21.5,5.809,3.0,316,16,5.9,-0.00002,-0.00000,43.6,46.5,8,0,.,.,6.00,0.00,0.00
15min,AgWx,beryljct,423,19NOV2020:04:45:00,37.5,12.75,36.8,40.7,38.7,42.7,35.2,54,61,47,0.412,23.6,24.7,22.5,0.022,2.5,277,10,6.1,-0.00003,-0.00002,43.4,46.4,9,0,.,.,6.00,0.00,0.00
15min,AgWx,beryljct,423,19NOV2020:05:00:00,36.9,12.74,36.7,33.9,34.5,40.1,32.3,61,66,49,0.424,22.3,23.6,20.8,1.863,2.0,169,29,5.0,-0.00008,-0.00010,43.2,46.4,8,0,.,.,6.00,0.00,0.00
15min,AgWx,beryljct,423,19NOV2020:05:15:00,36.2,12.74,35.6,35.3,36.6,39.5,33.9,58,64,51,0.422,23.2,24.1,19.9,2.083,1.8,238,21,3.6,-0.00009,-0.00011,43.0,46.3,9,0,.,.,6.00,0.00,0.00
15min,AgWx,beryljct,423,19NOV2020:05:30:00,35.9,12.73,37.8,37.3,37.1,38.8,35.0,58,62,55,0.440,23.6,24.5,22.4,0,0.9,285,55,3.3,-0.00017,-0.00023,42.8,46.3,8,0,.,.,6.00,0.00,0.00
15min,AgWx,beryljct,423,19NOV2020:05:45:00,35.5,12.72,32.6,32.5,36.2,38.1,32.4,59,65,55,0.404,23.0,24.1,21.1,1.754,0.7,120,48,3.5,-0.00019,-0.00027,42.6,46.2,8,0,.,.,6.00,0.00,0.00
15min,AgWx,beryljct,423,19NOV2020:06:00:00,34.9,12.72,30.5,31.6,32.5,34.0,31.6,66,67,62,0.401,22.3,23.5,21.3,4.604,4.1,157,32,6.4,0.00000,0.00002,42.5,46.2,8,0,.,.,6.01,0.00,0.00
15min,AgWx,beryljct,423,19NOV2020:06:15:00,33.9,12.7,28.2,28.2,29.4,31.6,28.0,71,75,67,0.378,21.2,22.9,20.2,1.315,2.2,119,61,5.2,-0.00008,-0.00010,42.3,46.1,8,0,.,.,6.00,0.00,0.00
15min,AgWx,beryljct,423,19NOV2020:06:30:00,32.8,12.7,29.4,28.9,28.0,28.9,27.0,72,75,70,0.378,20.2,21.4,19.4,1.403,2.0,12,60,3.6,-0.00009,-0.00011,42.1,46.1,9,0,.,.,6.01,0.00,0.00
15min,AgWx,beryljct,423,19NOV2020:06:45:00,31.8,12.67,30.0,29.7,29.7,30.4,28.9,67,70,65,0.361,20.2,20.9,19.3,2.105,1.6,315,11,2.7,0.00009,0.00015,41.9,46.0,9,0,.,.,6.00,0.00,0.00
15min,AgWx,beryljct,423,19NOV2020:07:00:00,31.2,12.66,26.7,28.1,29.2,29.8,28.1,65,66,64,0.343,18.7,19.4,18.1,1.732,1.3,333,10,2.8,0.00008,0.00013,41.7,45.9,9,0,.,.,6.01,0.00,0.00
15min,AgWx,beryljct,423,19NOV2020:07:15:00,30.5,12.68,25.6,26.5,27.0,27.8,25.3,67,72,65,0.321,17.4,18.4,16.5,0,1.5,60,13,2.6,0.00009,0.00015,41.5,45.9,9,2,.,.,6.01,0.00,0.00
15min,AgWx,beryljct,423,19NOV2020:07:30:00,29.6,12.7,26.7,26.4,25.7,26.5,25.1,70,71,66,0.334,17.2,17.8,16.3,0,0.1,67,0.9,0.9,0.00004,0.00005,41.3,45.8,8,8,.,.,6.01,0.00,0.00
15min,AgWx,beryljct,423,19NOV2020:07:45:00,29.1,13.01,28.3,27.7,26.9,27.7,26.3,68,69,67,0.343,17.7,18.1,17.3,1.381,0.4,150,4.4,1.8,0.00019,0.00022,41.1,45.7,9,45,.,.,6.01,0.00,0.00
15min,AgWx,beryljct,423,19NOV2020:08:00:00,29.6,13.49,30.4,29.6,28.0,29.6,26.8,68,72,66,0.364,18.9,19.6,17.9,0.351,1.8,174,10,3.9,0.00033,0.00041,40.9,45.7,9,81,.,.,6.01,0.00,0.00
15min,AgWx,beryljct,423,19NOV2020:08:15:00,31.0,14.8,30.9,30.2,30.0,30.8,29.0,67,71,65,0.404,20.4,22.0,19.3,2.214,1.1,174,3.3,2.4,0.00042,0.00049,40.7,45.6,8,118,.,.,6.00,0.00,0.00
15min,AgWx,beryljct,423,19NOV2020:08:30:00,33.0,14.73,35.9,35.5,32.3,35.5,30.2,66,71,63,0.446,22.2,24.4,21.0,2.784,2.3,173,14,3.4,0.00061,0.00074,40.6,45.5,9,157,.,.,6.00,0.00,0.00
15min,AgWx,beryljct,423,19NOV2020:08:45:00,35.7,14.69,38.9,37.8,35.9,37.8,34.7,64,68,60,0.460,25.0,25.8,24.1,3.771,3.5,156,18,4.8,0.00083,0.00102,40.4,45.5,8,198,.,.,6.00,0.00,0.00
15min,AgWx,beryljct,423,19NOV2020:09:00:00,38.8,14.63,43.5,43.2,41.2,43.2,37.9,53,59,49,0.465,25.4,26.1,24.6,4.428,3.8,170,8.2,5.0,0.00115,0.00146,40.2,45.4,8,239,.,.,6.00,0.00,0.00
15min,AgWx,beryljct,423,19NOV2020:09:15:00,42.4,14.55,46.5,46.1,44.9,46.1,43.1,47,49,46,0.486,26.0,26.9,25.1,3.529,3.8,172,9.9,5.0,0.00144,0.00182,40.1,45.3,8,279,.,.,6.00,0.00,0.00
15min,AgWx,beryljct,423,19NOV2020:09:30:00,46.0,14.51,48.1,47.9,47.4,48.2,46.1,44,46,43,0.484,26.8,27.4,26.2,2.674,3.2,158,10,4.2,0.00164,0.00202,40.1,45.2,8,318,.,.,5.99,0.00,0.00
15min,AgWx,beryljct,423,19NOV2020:09:45:00,49.1,14.53,48.9,48.6,48.5,48.9,47.8,44,45,43,0.508,27.5,28.2,26.4,4.209,3.7,137,9.7,5.3,0.00187,0.00232,40.1,45.1,8,355,.,.,5.99,0.00,0.00
15min,AgWx,beryljct,423,19NOV2020:10:00:00,51.1,14.41,49.5,49.3,48.8,49.4,48.4,45,46,43,0.532,28.2,29.2,27.3,4.932,5.1,132,9.4,6.3,0.00210,0.00265,40.2,45.1,9,390,.,.,5.99,0.00,0.00
15min,AgWx,beryljct,423,19NOV2020:10:15:00,52.8,14.48,51.0,51.4,50.5,51.4,49.1,44,46,43,0.572,29.6,30.5,28.2,2.411,2.6,102,22,4.8,0.00218,0.00256,40.3,45.0,8,422,.,.,5.99,0.00,0.00
15min,AgWx,beryljct,423,19NOV2020:10:30:00,54.8,13.96,53.6,52.9,52.1,52.9,51.3,43,44,41,0.570,30.1,31.0,29.4,3.047,2.4,76,25,4.1,0.00236,0.00274,40.5,44.9,8,452,.,.,5.99,0.00,0.00
15min,AgWx,beryljct,423,19NOV2020:10:45:00,56.8,13.99,52.6,53.7,53.2,53.9,52.6,40,43,39,0.572,29.7,31.0,28.9,4.735,1.9,111,40,4.7,0.00250,0.00286,40.7,44.8,8,478,.,.,5.98,0.00,0.00
15min,AgWx,beryljct,423,19NOV2020:11:00:00,58.3,13.91,53.4,53.8,53.4,53.8,53.1,40,41,39,0.548,29.6,30.6,29.1,2.411,2.4,34,24,5.6,0.00264,0.00307,41.0,44.8,8,499,.,.,5.98,0.00,0.00
15min,AgWx,beryljct,423,19NOV2020:11:15:00,59.9,13.89,54.6,54.2,54.5,55.4,53.6,39,40,37,0.551,29.7,31.2,29.0,0.548,1.5,40,56,5.1,0.00272,0.00307,41.3,44.7,8,519,.,.,5.98,0.00,0.00
15min,AgWx,beryljct,423,19NOV2020:11:30:00,61.1,13.88,56.2,56.0,55.2,56.2,54.2,38,39,36,0.568,29.8,30.9,29.4,2.17,1.3,87,91,3.9,0.00280,0.00313,41.7,44.6,9,535,.,.,5.98,0.00,0.00
15min,AgWx,beryljct,423,19NOV2020:11:45:00,62.2,13.86,56.9,56.8,56.6,57.6,55.8,36,38,35,0.562,30.0,31.2,29.2,1.228,2.2,60,52,4.5,0.00297,0.00342,42.1,44.6,8,547,.,.,5.97,0.00,0.00
15min,AgWx,beryljct,423,19NOV2020:12:00:00,62.8,13.96,57.6,57.2,57.3,58.2,56.5,35,36,34,0.546,29.8,31.1,28.9,2.938,3.3,58,33,5.5,0.00312,0.00371,42.6,44.6,8,554,.,.,5.97,0.00,0.00
15min,AgWx,beryljct,423,19NOV2020:12:15:00,63.1,13.84,58.1,58.2,58.2,59.1,57.2,34,37,33,0.548,29.9,32.3,28.9,3.069,3.0,118,28,5.3,0.00318,0.00375,43.1,44.5,8,561,.,.,5.97,0.00,0.00
15min,AgWx,beryljct,423,19NOV2020:12:30:00,63.5,13.82,58.8,58.5,58.4,58.9,57.7,33,34,32,0.541,29.4,30.5,28.8,3.573,2.7,115,23,5.6,0.00317,0.00372,43.6,44.5,8,561,.,.,5.97,0.00,0.00
15min,AgWx,beryljct,423,19NOV2020:12:45:00,63.8,13.79,58.3,59.2,59.5,60.5,58.4,32,34,30,0.536,29.3,30.6,28.6,2.192,2.3,145,48,4.8,0.00316,0.00367,44.1,44.5,8,558,.,.,5.97,0.00,0.00
15min,AgWx,beryljct,423,19NOV2020:13:00:00,64.4,13.78,59.2,59.6,59.4,60.2,58.9,32,33,31,0.543,29.2,30.4,28.6,0.088,2.5,158,68,5.0,0.00313,0.00367,44.7,44.5,8,552,.,.,5.96,0.00,0.00
15min,AgWx,beryljct,423,19NOV2020:13:15:00,65.0,13.75,60.0,60.0,59.6,60.1,59.1,30,32,27,0.494,27.9,29.4,26.2,3.288,2.1,15,37,4.7,0.00304,0.00353,45.2,44.5,8,542,.,.,5.96,0.00,0.00
15min,AgWx,beryljct,423,19NOV2020:13:30:00,65.6,13.73,59.7,60.3,60.0,61.0,59.2,28,29,27,0.474,26.6,27.8,25.8,3.749,2.3,20,46,5.7,0.00299,0.00351,45.8,44.5,8,527,.,.,5.96,0.00,0.00
15min,AgWx,beryljct,423,19NOV2020:13:45:00,66.1,13.73,60.4,61.3,60.9,61.7,59.9,26,28,24,0.460,25.6,27.5,24.1,4.428,3.0,82,36,5.2,0.00300,0.00362,46.3,44.6,8,510,.,.,5.96,0.00,0.00
15min,AgWx,beryljct,423,19NOV2020:14:00:00,66.5,13.74,60.4,61.4,61.1,61.7,60.6,25,27,24,0.446,24.8,27.0,23.3,7.607,3.4,42,32,8.1,0.00282,0.00349,46.8,44.6,9,471,.,.,5.96,0.00,0.00
15min,AgWx,beryljct,423,19NOV2020:14:15:00,66.8,13.69,60.5,61.0,60.8,61.5,60.3,25,26,24,0.464,24.5,25.7,23.7,4.845,4.3,79,68,9.5,0.00289,0.00368,47.3,44.7,8,464,.,.,5.96,0.00,0.00
15min,AgWx,beryljct,423,19NOV2020:14:30:00,66.7,13.78,61.4,61.2,61.2,61.7,60.8,24,25,24,0.453,24.6,25.8,23.9,5.678,4.8,122,20,7.7,0.00276,0.00360,47.8,44.7,8,430,.,.,5.96,0.00,0.00
15min,AgWx,beryljct,423,19NOV2020:14:45:00,66.5,13.69,61.5,61.5,61.2,61.7,60.8,25,26,24,0.463,24.7,26.5,23.9,7.212,4.9,127,19,7.4,0.00263,0.00347,48.2,44.8,8,408,.,.,5.96,0.00,0.00
15min,AgWx,beryljct,423,19NOV2020:15:00:00,66.3,13.7,61.1,61.0,61.4,62.2,61.0,25,27,24,0.461,25.4,26.7,24.1,6.029,5.5,142,18,9.3,0.00254,0.00346,48.6,44.9,8,376,.,.,5.96,0.00,0.00
15min,AgWx,beryljct,423,19NOV2020:15:15:00,66.1,13.7,61.4,61.5,61.1,61.5,60.7,26,26,24,0.487,25.6,26.6,24.1,6.226,5.2,140,12,8.1,0.00228,0.00314,49.0,45.0,8,341,.,.,5.96,0.00,0.00
15min,AgWx,beryljct,423,19NOV2020:15:30:00,65.8,13.71,60.6,60.7,61.0,61.5,60.6,27,28,25,0.485,26.4,28.0,25.0,4.099,5.2,104,17,8.9,0.00205,0.00288,49.3,45.1,8,302,.,.,5.96,0.00,0.00
15min,AgWx,beryljct,423,19NOV2020:15:45:00,65.5,13.7,60.5,60.9,60.9,61.2,60.6,27,28,26,0.470,26.3,27.8,25.3,5.415,3.7,104,16,5.8,0.00158,0.00219,49.6,45.2,9,262,.,.,5.96,0.00,0.00
15min,AgWx,beryljct,423,19NOV2020:16:00:00,65.2,13.7,60.2,60.3,60.6,60.9,60.3,27,29,25,0.487,26.4,28.1,25.0,4.932,4.2,92,23,6.8,0.00141,0.00207,49.8,45.3,8,222,.,.,5.96,0.00,0.00
15min,AgWx,beryljct,423,19NOV2020:16:15:00,64.8,13.7,59.4,59.6,60.0,60.3,59.6,28,29,25,0.512,26.7,28.2,24.2,2.784,3.8,88,11,6.6,0.00109,0.00168,50.0,45.4,8,182,.,.,5.97,0.00,0.00
15min,AgWx,beryljct,423,19NOV2020:16:30:00,64.0,13.72,58.6,58.2,59.0,59.6,58.1,30,34,28,0.527,27.9,29.7,26.7,3.135,3.0,82,8.3,4.5,0.00051,0.00073,50.2,45.6,9,142,.,.,5.96,0.00,0.00
15min,AgWx,beryljct,423,19NOV2020:16:45:00,63.1,13.73,58.6,58.4,58.5,59.0,58.0,29,31,27,0.483,26.6,28.1,25.2,4.319,2.9,77,6.0,4.3,0.00039,0.00058,50.3,45.7,9,104,.,.,5.97,0.00,0.00
15min,AgWx,beryljct,423,19NOV2020:17:00:00,61.8,13.23,55.5,55.6,57.3,58.5,55.5,30,33,28,0.492,26.1,27.1,24.9,4.341,5.1,53,13,8.4,0.00049,0.00068,50.3,45.8,8,64,.,.,5.97,0.00,0.00
15min,AgWx,beryljct,423,19NOV2020:17:15:00,59.3,13.11,52.0,52.2,53.9,55.7,52.2,34,36,32,0.479,26.5,26.9,26.1,4.516,4.2,52,11,5.5,0.00025,0.00037,50.3,45.9,8,12,.,.,5.98,0.00,0.00
15min,AgWx,beryljct,423,19NOV2020:17:30:00,56.3,13.04,50.4,50.6,51.0,52.1,50.4,37,38,36,0.470,25.9,26.2,25.6,5.459,5.2,36,6.2,7.1,0.00027,0.00038,50.2,46.0,9,5,.,.,5.98,0.00,0.00
15min,AgWx,beryljct,423,19NOV2020:17:45:00,53.8,13.02,49.0,49.4,49.9,50.7,49.4,38,38,37,0.455,25.2,25.6,24.8,6.138,6.2,35,6.0,7.7,0.00032,0.00043,50.1,46.2,8,1,.,.,5.98,0.00,0.00
15min,AgWx,beryljct,423,19NOV2020:18:00:00,51.9,13,47.4,47.5,48.5,49.5,47.4,38,39,37,0.437,24.2,24.9,23.8,5.546,5.5,24,5.3,7.7,0.00026,0.00036,49.9,46.3,9,0,.,.,5.98,0.00,0.00
15min,AgWx,beryljct,423,19NOV2020:18:15:00,50.1,12.98,46.4,46.3,46.7,47.4,46.2,40,41,39,0.425,23.5,23.9,23.1,1.71,3.4,29,5.5,5.9,0.00010,0.00016,49.7,46.4,8,0,.,.,5.98,0.00,0.00
15min,AgWx,beryljct,423,19NOV2020:18:30:00,48.4,12.97,45.6,45.2,45.7,46.4,45.1,40,41,39,0.418,22.9,23.2,22.7,0,0.7,20,9.0,2.6,-0.00023,-0.00033,49.5,46.5,9,0,.,.,5.99,0.00,0.00
15min,AgWx,beryljct,423,19NOV2020:18:45:00,46.8,12.97,46.1,45.4,45.1,45.4,44.6,41,41,40,0.414,22.6,22.8,22.4,1.447,0.5,316,32,1.8,-0.00026,-0.00037,49.3,46.6,8,0,.,.,5.99,0.00,0.00
15min,AgWx,beryljct,423,19NOV2020:19:00:00,45.6,12.94,44.5,44.6,44.8,45.5,44.4,41,41,40,0.411,22.4,22.6,22.3,3.091,1.2,15,45,3.5,-0.00015,-0.00019,49.0,46.7,8,0,.,.,5.98,0.00,0.00
15min,AgWx,beryljct,423,19NOV2020:19:15:00,45.0,12.95,46.7,46.0,45.0,46.0,43.7,41,43,40,0.423,22.7,23.1,22.2,4.034,2.7,0.6,38,5.5,0.00003,0.00007,48.7,46.7,8,0,.,.,5.99,0.00,0.00
15min,AgWx,beryljct,423,19NOV2020:19:30:00,44.5,12.94,44.8,44.3,44.8,46.0,44.2,41,42,40,0.417,22.7,23.1,22.5,2.017,1.8,354,45,3.6,-0.00007,-0.00006,48.4,46.8,9,0,.,.,5.99,0.00,0.00
15min,AgWx,beryljct,423,19NOV2020:19:45:00,43.8,12.91,44.1,43.9,43.9,44.4,43.0,43,44,42,0.420,22.8,23.0,22.3,1.885,1.4,29,51,2.9,-0.00012,-0.00015,48.2,46.9,9,0,.,.,5.99,0.00,0.00
15min,AgWx,beryljct,423,19NOV2020:20:00:00,43.2,12.92,43.1,43.6,43.6,43.9,43.3,44,44,43,0.424,22.9,23.2,22.6,3.617,2.4,81,17,3.9,-0.00002,0.00000,47.9,46.9,9,0,.,.,5.99,0.00,0.00
15min,AgWx,beryljct,423,19NOV2020:20:15:00,42.9,12.92,43.6,43.0,43.4,43.8,42.9,45,45,44,0.427,23.2,23.3,23.1,2.674,2.9,85,7.3,4.1,0.00003,0.00007,47.6,47.0,9,0,.,.,5.99,0.00,0.00
15min,AgWx,beryljct,423,19NOV2020:20:30:00,42.4,12.91,42.3,42.1,42.5,43.1,42.0,46,46,45,0.415,23.1,23.3,22.6,0,2.2,59,7.6,4.8,-0.00003,-0.00002,47.3,47.0,9,0,.,.,5.99,0.00,0.00
15min,AgWx,beryljct,423,19NOV2020:20:45:00,41.6,12.89,42.4,42.4,42.3,42.7,41.9,45,46,45,0.417,22.7,22.8,22.5,2.565,1.3,49,9.8,2.8,-0.00014,-0.00017,47.0,47.1,9,0,.,.,5.99,0.00,0.00
15min,AgWx,beryljct,423,19NOV2020:21:00:00,41.3,12.9,41.4,41.2,41.8,42.4,41.2,47,48,45,0.421,22.8,23.0,22.7,2.587,3.4,74,6.3,4.6,0.00005,0.00010,46.7,47.1,9,0,.,.,5.99,0.00,0.00
15min,AgWx,beryljct,423,19NOV2020:21:15:00,40.9,12.89,41.9,41.3,41.0,41.5,40.6,48,49,48,0.425,23.0,23.2,22.8,2.543,2.6,93,10,3.6,-0.00001,0.00001,46.4,47.1,9,0,.,.,6.00,0.00,0.00
15min,AgWx,beryljct,423,19NOV2020:21:30:00,40.4,12.88,39.6,39.9,40.6,41.3,39.9,49,50,48,0.419,22.9,23.1,22.7,0.219,1.4,96,10,3.1,-0.00012,-0.00015,46.1,47.1,8,0,.,.,5.99,0.00,0.00
15min,AgWx,beryljct,423,19NOV2020:21:45:00,39.7,12.86,40.8,40.3,39.9,40.6,39.1,50,52,49,0.426,22.9,23.3,22.6,2.302,1.6,132,14,3.7,-0.00011,-0.00013,45.9,47.1,9,0,.,.,5.99,0.00,0.00
15min,AgWx,beryljct,423,19NOV2020:22:00:00,39.3,12.87,38.7,39.3,39.6,40.4,39.0,51,52,50,0.421,22.9,23.3,22.6,3.442,2.9,145,7.8,3.9,0.00000,0.00003,45.6,47.1,9,0,.,.,6.00,0.00,0.00
15min,AgWx,beryljct,423,19NOV2020:22:15:00,39.0,12.85,38.7,38.9,39.0,39.5,38.6,53,54,52,0.425,23.3,23.7,22.9,3.793,3.9,139,9.1,4.8,0.00005,0.00009,45.3,47.1,8,0,.,.,6.00,0.00,0.00
15min,AgWx,beryljct,423,19NOV2020:22:30:00,38.7,12.86,37.7,38.2,38.5,39.2,37.9,54,55,52,0.419,23.1,23.4,22.8,1.666,2.7,132,8.7,3.7,-0.00002,-0.00000,45.1,47.0,8,0,.,.,6.00,0.00,0.00
15min,AgWx,beryljct,423,19NOV2020:22:45:00,38.1,12.85,38.8,38.2,37.4,38.3,35.9,55,58,53,0.415,22.8,23.3,22.1,2.499,2.2,342,64,3.6,-0.00006,-0.00006,44.8,47.0,8,0,.,.,6.00,0.00,0.00
15min,AgWx,beryljct,423,19NOV2020:23:00:00,37.5,12.84,34.5,34.5,36.2,38.3,33.1,56,62,53,0.406,22.0,22.7,20.1,2.126,1.9,321,16,3.0,-0.00008,-0.00009,44.6,47.0,8,0,.,.,6.00,0.00,0.00
15min,AgWx,beryljct,423,19NOV2020:23:15:00,36.5,12.84,33.2,33.2,33.8,35.5,31.5,61,65,58,0.406,21.7,22.9,20.0,1.951,2.1,313,8.4,2.8,-0.00007,-0.00008,44.3,46.9,8,0,.,.,6.00,0.00,0.00
15min,AgWx,beryljct,423,19NOV2020:23:30:00,35.4,12.83,37.8,36.7,34.7,36.7,32.8,60,63,55,0.408,22.1,22.7,21.5,2.762,2.1,304,3.9,3.0,-0.00007,-0.00008,44.1,46.9,9,0,.,.,6.00,0.00,0.00
15min,AgWx,beryljct,423,19NOV2020:23:45:00,35.0,12.82,36.1,34.7,36.0,36.9,34.2,56,59,55,0.403,21.9,22.3,21.0,0.548,1.7,320,15,3.2,-0.00010,-0.00012,43.9,46.9,9,0,.,.,6.00,0.00,0.00
15min,AgWx,bigpiney,439,19NOV2020:00:00:00,31.8,12.64,33.9,34.0,34.3,34.6,34.0,76,78,75,0.517,27.5,28.0,27.1,7.695,10.6,234,9.0,13.8,0.00008,0.00010,34.2,36.7,46,0,0,0.0,0.50,0.00,0.00
15min,AgWx,bigpiney,439,19NOV2020:00:15:00,32.3,12.63,34.0,33.8,33.8,34.1,33.6,79,80,78,0.515,28.1,28.3,27.8,8.33,10.1,240,6.7,12.9,0.00005,0.00007,34.2,36.7,46,0,0,0.0,0.50,0.00,0.00
15min,AgWx,bigpiney,439,19NOV2020:00:30:00,32.5,12.63,32.0,31.7,32.5,33.9,31.5,80,81,78,0.488,27.0,27.9,26.1,6.27,6.6,235,6.6,9.6,0.00001,0.00002,34.2,36.7,46,0,0,0.0,0.50,0.00,0.00
15min,AgWx,bigpiney,439,19NOV2020:00:45:00,32.3,12.62,31.7,31.5,31.4,31.7,31.2,81,82,80,0.486,26.2,26.5,25.9,6.204,6.1,241,6.0,7.3,-0.00000,0.00001,34.2,36.6,46,0,0,0.0,0.50,0.00,0.00
15min,AgWx,bigpiney,439,19NOV2020:01:00:00,31.9,12.62,32.5,32.0,31.8,32.2,31.5,80,81,77,0.472,26.2,26.5,25.7,5.524,6.7,254,7.3,8.3,0.00001,0.00003,34.2,36.7,46,0,0,0.0,0.50,0.00,0.00
15min,AgWx,bigpiney,439,19NOV2020:01:15:00,31.6,12.59,30.9,31.0,31.5,32.0,31.0,78,78,77,0.454,25.4,25.8,24.8,1.25,2.7,256,35,6.1,-0.00007,-0.00008,34.2,36.7,46,0,0,0.0,0.50,0.00,0.00
15min,AgWx,bigpiney,439,19NOV2020:01:30:00,30.9,12.6,31.8,30.9,29.1,30.9,26.7,79,84,76,0.449,23.4,24.7,21.3,6.05,3.2,191,55,6.9,-0.00005,-0.00006,34.2,36.7,46,0,0,0.0,0.50,0.00,0.00
15min,AgWx,bigpiney,439,19NOV2020:01:45:00,30.5,12.59,34.1,34.2,32.8,34.2,31.0,74,77,72,0.477,25.4,26.0,24.5,8.92,8.5,254,12,13.2,0.00007,0.00009,34.2,36.7,46,0,0,0.0,0.50,0.00,0.00
15min,AgWx,bigpiney,439,19NOV2020:02:00:00,31.0,12.59,33.5,33.7,34.1,34.4,33.7,72,72,71,0.470,25.9,26.1,25.6,5.437,8.1,251,8.3,11.1,0.00008,0.00010,34.2,36.7,46,0,0,0.0,0.50,0.00,0.00
15min,AgWx,bigpiney,439,19NOV2020:02:15:00,31.6,12.59,33.9,33.6,33.6,33.8,33.4,72,72,71,0.471,25.5,25.7,25.3,6.686,5.9,249,13,8.3,0.00004,0.00006,34.2,36.8,46,0,0,0.0,0.50,0.00,0.00
15min,AgWx,bigpiney,439,19NOV2020:02:30:00,32.0,12.58,35.0,34.6,34.4,34.9,33.7,69,72,68,0.464,25.4,25.7,25.1,12.23,9.4,245,9.3,15.0,0.00011,0.00013,34.2,36.7,46,0,0,0.0,0.50,0.00,0.00
15min,AgWx,bigpiney,439,19NOV2020:02:45:00,32.4,12.58,34.8,34.7,34.4,34.8,34.1,69,70,68,0.460,25.3,25.5,25.1,11,9.6,258,9.3,12.5,0.00011,0.00014,34.2,36.7,46,0,0,0.0,0.50,0.00,0.00
15min,AgWx,bigpiney,439,19NOV2020:03:00:00,32.9,12.57,29.8,30.6,34.1,34.9,30.6,70,74,67,0.427,25.1,25.8,23.3,6.335,9.2,288,29,14.6,0.00010,0.00013,34.2,36.7,46,0,0,0.0,0.50,0.00,0.00
15min,AgWx,bigpiney,439,19NOV2020:03:15:00,32.8,12.57,29.3,29.4,29.8,30.4,29.3,79,81,74,0.445,24.0,24.8,23.3,5.217,5.7,354,39,9.7,0.00000,0.00001,34.2,36.7,46,0,0,0.0,0.50,0.00,0.00
15min,AgWx,bigpiney,439,19NOV2020:03:30:00,32.1,12.57,30.7,30.9,30.7,31.6,29.3,84,86,81,0.493,26.5,27.5,24.3,4.735,6.7,35,20,10.8,-0.00001,-0.00000,34.2,36.7,46,0,0,0.0,0.50,0.00,0.00
15min,AgWx,bigpiney,439,19NOV2020:03:45:00,31.5,12.57,31.1,28.9,29.8,30.7,28.5,85,87,83,0.463,25.8,27.2,24.6,6.401,4.3,67,21,8.3,-0.00005,-0.00005,34.2,36.7,46,0,0,0.0,0.50,0.00,0.00
15min,AgWx,bigpiney,439,19NOV2020:04:00:00,30.8,12.56,29.5,30.7,29.4,31.0,27.9,86,89,84,0.487,25.8,27.3,23.8,3.223,3.2,220,95,8.4,-0.00007,-0.00008,34.2,36.7,46,0,0,0.0,0.50,0.00,0.00
15min,AgWx,bigpiney,439,19NOV2020:04:15:00,30.1,12.54,32.3,30.4,30.2,31.3,29.2,84,88,79,0.477,26.0,27.7,24.6,1.25,2.3,197,32,4.0,-0.00009,-0.00011,34.2,36.7,46,0,0,0.0,0.50,0.00,0.00
15min,AgWx,bigpiney,439,19NOV2020:04:30:00,29.5,12.55,34.3,33.0,30.7,33.0,29.9,78,83,71,0.453,24.6,26.4,23.8,12.96,4.3,218,62,14.3,-0.00003,-0.00002,34.2,36.7,46,0,0,0.0,0.50,0.00,0.00
15min,AgWx,bigpiney,439,19NOV2020:04:45:00,30.0,12.55,35.4,34.9,34.3,34.9,33.0,67,71,64,0.441,24.3,24.7,24.1,14.45,13.2,258,9.7,21.7,0.00016,0.00019,34.2,36.7,46,0,0,0.0,0.50,0.00,0.00
15min,AgWx,bigpiney,439,19NOV2020:05:00:00,31.0,12.54,35.6,34.9,34.7,35.2,34.3,64,64,63,0.432,23.6,24.1,23.4,16.95,13.3,254,8.2,20.7,0.00019,0.00022,34.2,36.7,46,0,0,0.0,0.50,0.00,0.00
15min,AgWx,bigpiney,439,19NOV2020:05:15:00,31.9,12.54,34.6,34.3,34.5,35.0,34.2,64,65,63,0.431,23.5,23.7,23.4,14.29,13.1,258,8.7,19.1,0.00018,0.00021,34.2,36.7,46,0,0,0.0,0.50,0.00,0.00
15min,AgWx,bigpiney,439,19NOV2020:05:30:00,32.4,12.54,34.5,34.1,34.1,34.5,33.7,65,66,64,0.437,23.6,23.9,23.5,15.28,12.9,272,13,19.2,0.00017,0.00020,34.2,36.7,46,0,0,0.0,0.50,0.00,0.00
15min,AgWx,bigpiney,439,19NOV2020:05:45:00,32.7,12.54,31.3,32.0,33.4,34.1,32.0,67,70,66,0.426,23.7,24.0,23.1,5.524,9.0,308,22,18.7,0.00011,0.00014,34.2,36.7,46,0,0,0.0,0.50,0.00,0.00
15min,AgWx,bigpiney,439,19NOV2020:06:00:00,32.3,12.54,30.0,29.4,29.6,31.9,29.0,83,86,70,0.469,25.0,25.7,23.1,4.099,5.9,332,17,8.4,-0.00001,-0.00000,34.2,36.8,46,0,0,0.0,0.50,0.00,0.00
15min,AgWx,bigpiney,439,19NOV2020:06:15:00,31.5,12.54,31.5,31.7,30.5,31.9,29.3,81,85,78,0.471,25.4,26.0,24.5,5.678,5.6,279,30,10.7,-0.00001,-0.00000,34.2,36.7,46,0,0,0.0,0.50,0.00,0.00
15min,AgWx,bigpiney,439,19NOV2020:06:30:00,31.0,12.54,31.8,31.3,31.2,31.7,30.7,79,81,78,0.470,25.5,26.0,25.0,8.7,7.5,249,12,12.5,0.00002,0.00004,34.2,36.8,46,0,0,0.0,0.50,0.00,0.00
15min,AgWx,bigpiney,439,19NOV2020:06:45:00,31.0,12.54,29.8,30.3,31.0,31.7,30.2,78,80,77,0.456,24.9,25.8,24.2,10.19,9.8,268,19,14.7,0.00005,0.00007,34.2,36.7,46,0,0,0.0,0.50,0.00,0.00
15min,AgWx,bigpiney,439,19NOV2020:07:00:00,30.7,12.53,29.4,29.3,29.2,30.2,28.9,83,85,80,0.440,24.8,25.4,23.9,10.13,12.1,288,9.3,15.9,0.00004,0.00005,34.2,36.7,46,0,0,0.0,0.50,0.00,0.00
15min,AgWx,bigpiney,439,19NOV2020:07:15:00,30.3,12.56,30.0,29.4,29.0,29.4,28.7,78,80,75,0.410,23.0,23.9,22.3,12.41,10.9,275,8.3,14.9,0.00006,0.00007,34.2,36.7,46,2,0,0.0,0.50,0.00,0.00
15min,AgWx,bigpiney,439,19NOV2020:07:30:00,30.3,12.65,30.8,30.6,30.1,30.7,29.4,72,74,71,0.411,22.3,22.6,22.1,14.42,13.7,279,8.9,18.2,0.00012,0.00014,34.2,36.7,46,9,0,0.0,0.50,0.00,0.00
15min,AgWx,bigpiney,439,19NOV2020:07:45:00,30.5,14.88,29.1,29.0,29.9,30.6,29.0,74,76,71,0.413,22.5,22.7,22.2,8.88,10.1,262,9.0,13.3,0.00011,0.00032,34.2,36.7,46,35,0,0.0,0.50,0.00,0.00
15min,AgWx,bigpiney,439,19NOV2020:08:00:00,30.5,14.97,30.3,30.0,29.0,30.0,28.4,76,78,71,0.400,22.3,22.6,21.7,10.7,9.4,248,6.1,12.2,0.00012,0.00030,34.2,36.6,46,53,0,0.0,0.50,0.00,0.00
15min,AgWx,bigpiney,439,19NOV2020:08:15:00,30.8,14.8,32.2,32.1,31.0,32.1,30.0,67,71,62,0.381,21.3,21.8,20.4,7.015,9.7,261,8.3,14.9,0.00043,0.00071,34.2,36.7,46,122,0,0.0,0.50,0.00,0.00